Location: *
(42.5628°N, 2.3633°E)
Time: 09:01:19
(UTC+00:00)

MOS 1 - Pass Details

Date: 30 March 2020
Orbit: 879 x 891 km, 99.2° (Epoch: 03 June)

Event Time Altitude Azimuth Distance (km) Brightness Sun altitude
Exits shadow 19:28:52 - 165° (SSE) 3,462 7.1 -14.1°
Reaches altitude 10° 19:31:14 10° 166° (SSE) 2,527 6.4 -14.5°
Maximum altitude 19:36:52 86° 254° (WSW) 889 4.3 -15.5°
Drops below altitude 10° 19:42:34 10° 345° (NNW) 2,550 7.2 -16.5°
Sets 19:44:58 0° 346° (NNW) 3,495 7.9 -16.9°
